FENGYUN 1C DEB

Satellite information

Favourite Embed

Satellite Type and Status

DEBRISIN ORBIT

Key statistics

Satellite FENGYUN 1C DEB at a glance.

Uptime

9616

Days in orbit

Revolutions

≈ 14.2

Per day

Orbit

SSO

Sun Synchronous Orbit

Inclination

99.1

Latest

Satellite identification and parameters

Extended collection of information and parameters for FENGYUN 1C DEB.

Object identification

Identified? True

Debris? True

Object name: FENGYUN 1C DEB

International designator: 1999-025MK

Object number (NORAD): 30010

Object ID (CCSDS): 30010

Country: PEOPLES REPUBLIC OF CHINA (PRC)

Current information (Y/N): Y

RCS size: MEDIUM

Orbital parameters

Period: 101.06 minutes

Inclination: 99.0775 deg

SMA: 7186.959 km

Apoapsis: 861.978 km

Periapsis: 755.669 km

RAAN: 77.624 deg

Eccentricy: 0.00739597

Argument of periapsis: 130.9176 deg

Mean anomaly: 245.2658 deg

Mean motion: 14.24902148 rev/day

Mean motion (dot): 0.00000475 rev/day2

B* drag term: 0.00021710803 1/REarth

Two-line elements (TLE)

Creation date: Sept. 6, 2025, 2:09 a.m.

Reference frame: TEME

Reference center: EARTH

Epoch: Sept. 5, 2025, 6:22 p.m. UTC

TLE line 0: 0 FENGYUN 1C DEB

TLE line 1: 1 30010U 99025MK 25248.76585687 .00000475 00000-0 21711-3 0 9993

TLE line 2: 2 30010 99.0775 77.6240 0073960 130.9176 245.2658 14.24902148968652

Live tracking on map

Real-time ground track for satellite FENGYUN 1C DEB.

In-orbit conjunctions

A list of the most updated potential collisions computed for object FENGYUN 1C DEB.

Target Orbit TCA Probability of collision Miss distance Type
THOR ABLESTAR DEB LEO 2025-07-10 07:52:59 0.0001103199 90.0 (m) DEBRIS
SL-16 DEB LEO 2024-12-21 21:28:23 0.0001579112 251.0 (m) DEBRIS

Associated space launch

Chinese polar orbiting meteorological satellite

FENGYUN 1C DEB was lifted into orbit during the mission ‘Long March 4B | Feng Yun 1C’, on board a Long March 4B space rocket.

The launch took place on May 10, 1999, 1:33 a.m. from Launch Complex 7.

For more information about the launch, click the button.

Launch to space Long March 4B | Feng Yun 1C
Long March 4B | Feng Yun 1C

Agency: N/A

Status: Launch Successful

Launch date: May 10, 1999, 1:33 a.m. UTC

Rocket: Long March 4B

Launch pad: Launch Complex 7

Location: Taiyuan Satellite Launch Center, People's Republic of China

...

Latest news about this satellite

There are no fresh news available about this satellite. Check back as we update our databases every day.


Newsletter sign-up

Weekly statistics, charts and insights to help you stay on top of the space industry.